GW0409 Weather Reports


time (UTC)temp
C
wind
direction
speed
KPH
gust
KPH
rain 1hr
cm
rain 24hr
cm
rain mn
cm
humidity
%
barometer
mb
20260503181040 15 351 3.2 12.9 0.00 0.00 0.00 52 1017.7
20260503180020 15 301 3.2 12.9 0.00 0.00 0.00 55 1017.6
20260503175040 14 338 4.8 9.7 0.00 0.00 0.00 57 1017.8
20260503174039 14 300 4.8 11.3 0.00 0.00 0.00 58 1017.9
20260503173019 13 291 4.8 8.0 0.00 0.00 0.00 58 1017.9
20260503172016 13 350 4.8 11.3 0.00 0.00 0.00 60 1018.0
20260503171019 13 316 4.8 11.3 0.00 0.00 0.00 62 1018.1
20260503150959 10 238 3.2 6.4 0.00 0.00 0.00 75 1018.0
20260503131017 8 219 1.6 4.8 0.00 0.00 0.00 79 1017.7
20260503081020 12 0.0 0.0 0.00 0.00 0.00 58 1016.5
20260503072020 13 339 4.8 6.4 0.00 0.00 0.00 53 1016.3
20260503071017 13 336 4.8 6.4 0.00 0.00 0.00 53 1016.3
20260503055019 15 345 1.6 4.8 0.00 0.00 0.00 48 1016.2
20260503054019 15 0.0 0.0 0.00 0.00 0.00 47 1016.1
20260503053019 15 351 1.6 4.8 0.00 0.00 0.00 47 1016.1
20260503052019 15 353 1.6 4.8 0.00 0.00 0.00 45 1016.1
20260503051019 15 345 0.0 4.8 0.00 0.00 0.00 45 1016.1
20260503050019 15 3 1.6 6.4 0.00 0.00 0.00 45 1016.0
20260503045017 15 359 1.6 4.8 0.00 0.00 0.00 45 1015.9
20260503044021 16 0.0 0.0 0.00 0.00 0.00 44 1015.9
20260503043020 16 0.0 0.0 0.00 0.00 0.00 43 1015.8
20260503042020 16 0.0 0.0 0.00 0.00 0.00 43 1015.7
20260503041017 17 293 0.0 3.2 0.00 0.00 0.00 41 1015.6
20260503040039 17 303 0.0 4.8 0.00 0.00 0.00 40 1015.5
20260503035019 17 194 0.0 4.8 0.00 0.00 0.00 39 1015.4
20260503034038 17 216 1.6 6.4 0.00 0.00 0.00 38 1015.4
20260503033038 18 152 1.6 4.8 0.00 0.00 0.00 36 1015.3
20260503032038 18 261 1.6 6.4 0.00 0.00 0.00 35 1015.3
20260503031018 18 291 0.0 6.4 0.00 0.00 0.00 34 1015.2
20260503030018 19 221 1.6 6.4 0.00 0.00 0.00 33 1015.2
20260503025039 20 288 1.6 8.0 0.00 0.00 0.00 32 1015.2
20260503024019 20 257 3.2 8.0 0.00 0.00 0.00 32 1015.1
20260503023039 20 317 1.6 6.4 0.00 0.00 0.00 31 1015.2
20260503022019 21 246 1.6 8.0 0.00 0.00 0.00 30 1015.2
20260503021016 21 226 1.6 8.0 0.00 0.00 0.00 30 1015.3
20260503020039 21 261 1.6 8.0 0.00 0.00 0.00 30 1015.3
20260503015019 21 262 3.2 9.7 0.00 0.00 0.00 29 1015.4
20260503014020 21 321 3.2 9.7 0.00 0.00 0.00 29 1015.3
20260503013017 21 246 4.8 14.5 0.00 0.00 0.00 29 1015.4
20260503012018 21 269 4.8 9.7 0.00 0.00 0.00 28 1015.4
20260503011018 21 257 6.4 14.5 0.00 0.00 0.00 28 1015.5
20260503010041 21 240 4.8 12.9 0.00 0.00 0.00 28 1015.5
20260503005018 21 252 6.4 12.9 0.00 0.00 0.00 27 1015.6
20260503004018 21 284 4.8 11.3 0.00 0.00 0.00 26 1015.7
20260503003039 20 263 6.4 17.7 0.00 0.00 0.00 25 1015.8
20260503002019 20 272 3.2 14.5 0.00 0.00 0.00 26 1016.0
20260503001019 20 235 4.8 12.9 0.00 0.00 0.00 26 1016.0
20260503000019 21 352 3.2 6.4 0.00 0.00 0.00 26 1016.2
20260502235019 20 67 3.2 9.7 0.00 0.00 0.00 27 1016.3
20260502234021 20 255 3.2 9.7 0.00 0.00 0.00 28 1016.4
20260502233021 20 292 3.2 9.7 0.00 0.00 0.00 27 1016.4
20260502232020 20 242 4.8 12.9 0.00 0.00 0.00 26 1016.5
20260502231017 20 286 4.8 11.3 0.00 0.00 0.00 27 1016.6
20260502230022 20 250 4.8 11.3 0.00 0.00 0.00 27 1016.7
20260502225040 20 253 8.0 17.7 0.00 0.00 0.00 27 1016.7
20260502224021 19 274 3.2 9.7 0.00 0.00 0.00 27 1017.0
20260502222038 20 230 4.8 11.3 0.00 0.00 0.00 26 1017.1
20260502221100 20 246 6.4 14.5 0.00 0.00 0.00 25 1017.1
20260502220021 20 323 4.8 12.9 0.00 0.00 0.00 25 1017.2
20260502215040 20 252 8.0 14.5 0.00 0.00 0.00 26 1017.3
20260502214018 20 263 4.8 11.3 0.00 0.00 0.00 28 1017.4
20260502213019 19 293 4.8 14.5 0.00 0.00 0.00 30 1017.6
20260502212018 19 262 4.8 12.9 0.00 0.00 0.00 30 1017.8
20260502211018 18 279 6.4 16.1 0.00 0.00 0.00 31 1017.9
20260502210039 19 276 8.0 16.1 0.00 0.00 0.00 30 1017.9
20260502205019 18 264 6.4 24.1 0.00 0.00 0.00 31 1018.1
20260502204019 18 287 6.4 14.5 0.00 0.00 0.00 32 1018.3
20260502203019 18 267 6.4 12.9 0.00 0.00 0.00 33 1018.4
20260502202017 18 243 6.4 12.9 0.00 0.00 0.00 36 1018.5
20260502201018 18 273 6.4 16.1 0.00 0.00 0.00 37 1018.7
20260502200042 17 251 3.2 6.4 0.00 0.00 0.00 40 1018.7
20260502195021 17 257 6.4 14.5 0.00 0.00 0.00 40 1018.9
20260502194017 17 326 4.8 11.3 0.00 0.00 0.00 41 1019.0
20260502193019 17 255 4.8 11.3 0.00 0.00 0.00 42 1019.2
20260502192017 16 216 3.2 8.0 0.00 0.00 0.00 45 1019.3
20260502191018 16 233 4.8 9.7 0.00 0.00 0.00 46 1019.4
20260502190021 16 244 4.8 11.3 0.00 0.00 0.00 46 1019.5
20260502185019 15 191 3.2 9.7 0.00 0.00 0.00 47 1019.7
20260502184040 15 238 4.8 9.7 0.00 0.00 0.00 48 1019.8
20260502182021 14 260 3.2 9.7 0.00 0.00 0.00 51 1020.2